Location: LDNL
(36.4545°S, 141.6685°E)
Time: 19:08:42
(UTC+10:00)

A-11 Canister half - Pass Details

Date: 02 February 2022
Orbit: 1527 x 1682 km, 47.3° (Epoch: 20 May)

Event Time Altitude Azimuth Distance (km) Brightness Sun altitude
Rises 03:46:29 0° 240° (WSW) 4,926 11.6 -29.6°
Reaches altitude 10° 03:49:46 10° 237° (WSW) 3,922 11.1 -29.2°
Maximum altitude 03:59:43 63° 156° (SSE) 1,782 9.4 -28.1°
Drops below altitude 10° 04:09:18 10° 75° (ENE) 3,786 11.3 -26.9°
Sets 04:12:24 0° 71° (ENE) 4,747 11.8 -26.5°
